�N����,����,�~����,�C��,���x,�C��,����,���ϕ���,�ő�u�ԕ���,�ő厞����,���˗�,�I�_���x,�n�����x,�ő啗���N��,DTYPE
"19/01/28","00:10",0.0,-0.4,98.2,1016.4,319.6,1.7,2.5,325.1,0.00,-0.6,4.3,"00:04:08",1
"19/01/28","00:20",0.0,-0.6,96.7,1016.6,316.7,1.5,2.2,327.6,0.00,-1.0,4.2,"00:15:12",1
"19/01/28","00:30",0.0,-0.6,98.0,1015.6,323.1,1.1,1.8,308.0,0.00,-0.8,4.1,"00:28:08",1
"19/01/28","00:40",0.0,-0.5,98.0,1015.9,309.6,1.3,1.7,307.4,0.00,-0.7,4.1,"00:39:44",1
"19/01/28","00:50",0.0,-0.4,97.8,1015.6,306.5,1.5,2.0,317.8,0.00,-0.7,4.2,"00:40:24",1
"19/01/28","01:00",0.0,-0.6,98.2,1016.1,302.4,1.0,1.6,309.1,0.00,-0.8,4.1,"00:50:40",1
"19/01/28","01:10",0.0,-0.4,97.9,1016.1,301.8,1.0,1.4,324.4,0.00,-0.7,3.9,"01:05:12",1
"19/01/28","01:20",0.0,-0.6,98.5,1015.4,311.5,1.3,2.0,317.9,0.00,-0.8,4.1,"01:17:36",1
"19/01/28","01:30",0.0,-0.6,98.1,1015.2,319.8,1.3,1.8,326.1,0.00,-0.8,4.0,"01:26:00",1
"19/01/28","01:40",0.0,-0.6,98.1,1015.2,313.6,1.2,2.0,318.0,0.00,-0.8,4.1,"01:32:08",1
"19/01/28","01:50",0.0,-0.5,98.4,1015.2,299.7,1.3,2.1,320.2,0.00,-0.7,3.9,"01:43:28",1
"19/01/28","02:00",0.0,-0.5,98.1,1015.2,291.1,1.1,1.6,308.7,0.00,-0.7,4.0,"01:51:12",1
"19/01/28","02:10",0.0,-0.6,97.9,1014.9,330.4,1.1,2.1,323.8,0.00,-0.9,3.7,"02:04:48",1
"19/01/28","02:20",0.0,-1.2,98.5,1014.9,304.1,1.2,2.1,313.1,0.00,-1.4,3.9,"02:15:54",1
"19/01/28","02:30",0.0,-1.1,98.6,1015.4,318.7,1.7,2.6,319.1,0.00,-1.3,3.8,"02:23:34",1
"19/01/28","02:40",0.0,-1.0,98.7,1015.2,309.5,1.3,2.1,319.1,0.00,-1.1,3.8,"02:31:38",1
"19/01/28","02:50",0.0,-1.0,98.5,1015.2,282.6,1.2,1.4,306.5,0.00,-1.2,3.8,"02:46:08",1
"19/01/28","03:00",0.0,-1.0,98.7,1014.9,293.2,1.3,2.1,307.3,0.00,-1.1,3.8,"02:56:16",1
"19/01/28","03:10",0.0,-0.8,98.3,1014.9,290.8,1.1,2.1,318.2,0.00,-1.0,3.9,"03:02:40",1
"19/01/28","03:20",0.0,-1.0,98.6,1014.7,284.5,1.1,1.3,289.5,0.00,-1.2,3.9,"03:13:36",1
"19/01/28","03:30",0.0,-0.9,98.8,1014.9,296.2,1.3,1.9,302.4,0.00,-1.0,3.8,"03:28:56",1
"19/01/28","03:40",0.0,-1.0,98.6,1014.7,311.5,2.1,2.4,320.4,0.00,-1.2,3.8,"03:33:36",1
"19/01/28","03:50",0.0,-1.0,98.8,1014.5,301.5,1.7,2.2,315.0,0.00,-1.1,3.6,"03:44:56",1
"19/01/28","04:00",0.0,-0.9,99.0,1014.5,297.8,1.6,2.1,310.3,0.00,-1.0,3.9,"03:55:20",1
"19/01/28","04:10",0.0,-0.9,98.5,1014.2,289.1,1.1,1.9,320.5,0.00,-1.1,3.8,"04:03:20",1
"19/01/28","04:20",0.0,-0.9,99.1,1014.5,293.8,1.6,2.0,319.2,0.00,-1.0,3.7,"04:18:24",1
"19/01/28","04:30",0.0,-0.9,98.8,1014.0,289.7,1.2,1.8,305.0,0.00,-1.0,3.7,"04:29:52",1
"19/01/28","04:40",0.0,-0.8,99.0,1014.0,300.6,1.6,2.5,305.9,0.00,-0.9,3.7,"04:39:36",1
"19/01/28","04:50",0.0,-0.7,99.4,1014.0,306.5,1.8,2.4,311.1,0.00,-0.7,3.6,"04:40:32",1
"19/01/28","05:00",0.0,-0.7,98.9,1013.8,301.6,1.6,2.1,308.0,0.00,-0.8,3.9,"04:52:40",1
"19/01/28","05:10",0.0,-0.7,99.2,1014.0,293.3,1.5,2.1,313.7,0.00,-0.8,3.7,"05:07:36",1
"19/01/28","05:20",0.0,-0.6,99.2,1013.5,297.9,1.3,2.2,315.1,0.00,-0.7,3.6,"05:16:08",1
"19/01/28","05:30",0.0,-0.6,99.2,1013.3,289.2,1.2,1.7,318.1,0.00,-0.7,3.8,"05:29:52",1
"19/01/28","05:40",0.0,-0.8,98.8,1013.3,284.1,0.8,1.6,312.8,0.00,-0.9,3.6,"05:30:08",1
"19/01/28","05:50",0.0,-1.1,99.0,1013.5,297.6,1.6,2.1,305.1,0.00,-1.2,3.6,"05:44:32",1
"19/01/28","06:00",0.0,-1.2,99.2,1013.8,293.9,1.2,1.7,297.1,0.00,-1.3,3.7,"05:59:12",1
"19/01/28","06:10",0.0,-1.3,99.2,1013.5,288.8,1.2,1.6,296.7,0.00,-1.4,3.6,"06:00:08",1
"19/01/28","06:20",0.0,-1.1,99.0,1013.3,286.2,0.7,1.7,305.7,0.00,-1.2,3.5,"06:19:20",1
"19/01/28","06:30",0.0,-1.4,99.3,1013.5,308.8,2.1,2.9,315.7,0.00,-1.5,3.4,"06:28:56",1
"19/01/28","06:40",0.0,-1.6,99.5,1013.3,299.1,1.5,2.4,317.8,0.00,-1.6,3.5,"06:30:08",1
"19/01/28","06:50",0.0,-1.6,99.8,1013.5,312.1,1.8,2.4,306.7,0.00,-1.6,3.4,"06:42:40",1
"19/01/28","07:00",0.0,-1.5,99.4,1013.3,290.0,1.2,1.7,316.7,0.00,-1.5,3.5,"06:50:16",1
"19/01/28","07:10",0.0,-1.5,99.7,1013.3,309.6,1.6,2.0,317.1,0.00,-1.5,3.6,"07:09:44",1
"19/01/28","07:20",0.0,-1.6,99.2,1013.5,294.1,1.5,2.6,321.6,0.00,-1.7,3.3,"07:14:08",1
"19/01/28","07:30",0.0,-1.5,99.9,1013.5,274.2,0.7,1.0,276.0,0.00,-1.5,3.4,"07:24:00",1
"19/01/28","07:40",0.0,-1.5,99.6,1013.3,299.2,1.5,2.2,313.5,0.00,-1.5,3.2,"07:39:44",1
"19/01/28","07:50",0.0,-1.3,99.6,1013.5,305.0,1.7,2.1,314.3,0.00,-1.3,3.4,"07:43:52",1
"19/01/28","08:00",0.0,-1.0,99.8,1013.5,299.2,1.8,2.6,316.2,0.00,-1.0,3.3,"07:57:52",1
"19/01/28","08:10",0.0,-0.8,99.6,1013.8,297.8,1.6,2.6,315.0,0.00,-0.8,3.5,"08:04:00",1
"19/01/28","08:20",0.0,-0.7,99.7,1013.8,296.6,2.2,3.2,314.0,0.01,-0.7,3.4,"08:16:24",1
"19/01/28","08:30",0.0,-0.4,99.7,1013.8,273.8,1.2,2.2,305.0,0.02,-0.4,3.5,"08:24:16",1
"19/01/28","08:40",0.0,0.1,99.8,1013.5,303.3,1.5,2.7,312.8,0.02,0.1,3.4,"08:34:16",1
"19/01/28","08:50",0.0,0.4,99.4,1013.5,301.5,1.3,1.9,323.7,0.04,0.4,3.5,"08:40:48",1
"19/01/28","09:00",0.0,0.6,99.3,1013.3,272.5,1.2,1.8,274.8,0.06,0.5,3.4,"08:52:48",1
"19/01/28","09:10",0.0,0.8,99.5,1013.5,282.2,1.7,2.9,312.0,0.07,0.8,3.5,"09:07:36",1
"19/01/28","09:20",0.0,1.3,99.3,1013.5,298.2,2.1,2.6,310.3,0.09,1.2,3.7,"09:13:18",1
"19/01/28","09:30",0.0,1.7,98.7,1013.3,307.9,2.6,3.2,312.0,0.08,1.6,3.8,"09:29:52",1
"19/01/28","09:40",0.0,1.9,98.9,1014.0,293.1,1.8,2.8,318.5,0.05,1.8,3.6,"09:30:08",1
"19/01/28","09:50",0.0,1.8,98.2,1013.5,262.4,1.5,1.9,255.8,0.05,1.6,3.8,"09:40:56",1
"19/01/28","10:00",0.0,1.9,98.0,1013.5,264.6,1.3,1.8,275.5,0.05,1.7,3.9,"09:53:32",1
"19/01/28","10:10",0.0,2.2,97.9,1013.0,278.0,1.5,2.1,309.3,0.04,1.9,4.2,"10:09:14",1
"19/01/28","10:20",0.0,2.3,98.6,1013.3,288.7,1.2,2.0,316.3,0.06,2.1,4.1,"10:14:08",1
"19/01/28","10:30",0.0,2.4,97.6,1012.8,304.9,1.6,2.1,334.4,0.05,2.1,4.2,"10:27:48",1
"19/01/28","10:40",0.0,2.3,98.0,1012.8,314.1,2.0,3.5,324.7,0.03,2.1,4.2,"10:31:30",1
"19/01/28","10:50",0.0,2.8,97.0,1013.0,297.9,1.2,2.1,316.8,0.06,2.4,4.2,"10:40:16",1
"19/01/28","11:00",0.0,2.9,97.6,1012.8,285.9,1.8,3.1,308.6,0.09,2.6,4.3,"10:58:40",1
"19/01/28","11:10",0.0,3.1,96.9,1013.0,271.3,1.7,2.6,297.0,0.09,2.7,4.4,"11:00:40",1
"19/01/28","11:20",0.0,3.2,96.5,1012.8,283.1,1.8,3.4,317.8,0.06,2.7,4.4,"11:19:36",1
"19/01/28","11:30",0.0,3.3,96.0,1012.8,293.7,1.3,2.6,323.6,0.01,2.8,4.6,"11:20:08",1
"19/01/28","11:40",0.0,3.3,95.6,1012.1,273.0,1.3,1.8,267.0,0.01,2.7,4.7,"11:36:48",1
"19/01/28","11:50",0.0,3.4,95.0,1011.9,275.5,1.3,1.8,290.0,0.02,2.7,4.9,"11:40:16",1
"19/01/28","12:00",0.0,3.7,94.3,1011.9,314.1,1.5,2.0,315.5,0.02,2.9,4.8,"11:53:44",1
"19/01/28","12:10",0.0,3.8,93.4,1011.9,305.2,1.0,1.4,311.6,0.03,2.9,4.8,"12:05:04",1
"19/01/28","12:20",0.0,4.0,92.8,1011.4,258.9,1.0,1.6,251.1,0.07,3.0,5.0,"12:19:04",1
"19/01/28","12:30",0.0,4.3,92.0,1011.4,283.8,1.7,2.0,302.0,0.07,3.2,4.9,"12:22:56",1
"19/01/28","12:40",0.0,4.4,91.1,1010.9,283.0,1.7,2.8,310.1,0.08,3.1,4.9,"12:30:32",1
"19/01/28","12:50",0.0,4.7,90.6,1010.7,285.6,1.6,2.2,301.7,0.09,3.3,5.1,"12:44:34",1
"19/01/28","13:00",0.0,4.6,89.8,1010.7,286.1,1.3,2.1,311.4,0.14,3.1,5.2,"12:56:42",1
"19/01/28","13:10",0.0,5.2,87.6,1010.9,291.8,1.5,2.2,306.4,0.11,3.4,5.4,"13:07:04",1
"19/01/28","13:20",0.0,5.2,87.3,1010.7,267.7,1.1,1.7,255.7,0.08,3.3,5.3,"13:13:36",1
"19/01/28","13:30",0.0,5.0,87.5,1010.4,271.1,0.8,1.6,292.5,0.06,3.1,5.6,"13:24:00",1
"19/01/28","13:40",0.0,5.4,87.0,1010.2,270.9,1.0,2.2,322.4,0.12,3.5,5.8,"13:39:52",1
"19/01/28","13:50",0.0,5.5,86.5,1010.0,298.9,1.6,2.4,321.8,0.04,3.5,5.6,"13:40:48",1
"19/01/28","14:00",0.0,5.4,87.1,1010.2,293.7,1.8,2.5,316.5,0.03,3.5,5.8,"13:56:48",1
"19/01/28","14:10",0.0,5.5,87.3,1010.2,315.5,2.2,3.4,319.6,0.06,3.6,5.7,"14:05:50",1
"19/01/28","14:20",0.0,5.6,87.2,1010.0,271.8,1.2,2.0,308.3,0.08,3.7,6.0,"14:10:08",1
"19/01/28","14:30",0.0,5.8,87.4,1009.7,272.5,0.8,1.3,281.0,0.09,3.9,6.0,"14:29:12",1
"19/01/28","14:40",0.0,6.2,87.0,1009.3,319.3,1.3,2.7,323.9,0.07,4.2,5.7,"14:37:20",1
"19/01/28","14:50",0.0,6.4,87.0,1009.5,305.3,1.1,2.5,323.6,0.09,4.4,6.0,"14:43:04",1
"19/01/28","15:00",0.0,6.8,86.4,1009.3,305.0,1.2,2.0,312.8,0.10,4.7,6.2,"14:55:36",1
"19/01/28","15:10",0.0,6.8,87.1,1009.3,275.2,1.2,2.0,315.7,0.11,4.8,6.1,"15:09:12",1
"19/01/28","15:20",0.0,7.2,86.6,1009.5,288.9,1.3,2.0,324.5,0.07,5.2,6.0,"15:12:56",1
"19/01/28","15:30",0.0,7.5,86.0,1009.3,231.3,0.8,1.9,203.8,0.07,5.4,6.2,"15:28:56",1
"19/01/28","15:40",0.0,7.4,85.3,1009.7,207.2,1.2,2.1,243.1,0.03,5.1,6.3,"15:36:48",1
"19/01/28","15:50",0.0,7.1,85.0,1009.5,219.4,1.3,2.7,228.8,0.00,4.8,6.3,"15:45:20",1
"19/01/28","16:00",0.0,7.1,84.5,1009.5,199.2,1.3,2.6,46.1,0.00,4.7,6.4,"15:58:48",1
"19/01/28","16:10",0.0,7.1,83.3,1009.0,291.2,1.5,2.7,317.4,0.00,4.5,6.4,"16:07:04",1
"19/01/28","16:20",0.0,7.0,83.4,1009.0,261.6,1.3,2.4,283.8,0.00,4.4,6.5,"16:12:48",1
"19/01/28","16:30",0.0,7.0,83.5,1008.6,315.2,1.5,2.5,315.5,0.00,4.4,6.3,"16:28:24",1
"19/01/28","16:40",0.0,6.9,84.1,1008.8,252.0,1.0,3.6,323.9,0.00,4.4,6.4,"16:30:02",1
"19/01/28","16:50",0.0,6.9,85.1,1009.0,307.9,1.5,2.7,329.0,0.00,4.6,6.2,"16:40:08",1
"19/01/28","17:00",0.0,6.8,85.4,1009.0,281.6,1.3,2.0,303.7,0.00,4.6,6.5,"16:50:08",1
"19/01/28","17:10",0.0,7.0,85.5,1008.8,268.5,1.8,4.3,235.0,0.00,4.8,6.2,"17:09:36",1
"19/01/28","17:20",0.0,7.5,83.2,1009.0,263.7,2.1,5.2,240.8,0.00,4.9,6.2,"17:16:48",1
"19/01/28","17:30",0.0,7.6,81.1,1009.3,258.7,2.3,3.9,227.4,0.00,4.6,6.2,"17:28:56",1
"19/01/28","17:40",0.0,7.6,79.5,1009.5,281.6,2.2,3.6,315.2,0.00,4.3,6.2,"17:33:36",1
"19/01/28","17:50",0.0,7.5,79.1,1009.5,279.7,2.1,4.7,347.1,0.00,4.2,6.1,"17:40:02",1
"19/01/28","18:00",0.0,7.1,79.5,1009.0,292.3,1.8,4.1,325.8,0.00,3.8,6.3,"17:50:16",1
"19/01/28","18:10",0.0,6.6,80.5,1008.8,316.2,2.2,3.5,316.8,0.00,3.5,6.3,"18:08:40",1
"19/01/28","18:20",0.0,5.9,82.9,1009.0,307.5,1.7,2.6,317.8,0.00,3.3,6.2,"18:10:02",1
"19/01/28","18:30",0.0,5.4,85.1,1008.8,294.8,2.1,2.9,320.0,0.00,3.1,6.0,"18:24:16",1
"19/01/28","18:40",0.0,5.3,87.2,1009.0,302.4,2.7,4.1,313.9,0.00,3.4,6.2,"18:39:44",1
"19/01/28","18:50",0.0,6.0,87.0,1009.0,314.7,3.7,8.3,331.6,0.00,4.0,6.0,"18:48:08",1
"19/01/28","19:00",0.0,6.4,84.8,1009.5,309.2,4.9,8.3,332.8,0.00,4.1,6.0,"18:59:14",1
"19/01/28","19:10",0.0,6.5,82.2,1009.7,317.8,5.9,10.4,299.9,0.00,3.7,6.0,"19:01:04",1
"19/01/28","19:20",0.0,6.4,80.8,1010.4,323.0,6.1,13.2,349.2,0.00,3.4,5.8,"19:18:26",1
"19/01/28","19:30",0.0,6.1,79.7,1010.0,316.6,4.6,9.1,343.5,0.00,2.9,6.0,"19:22:16",1
"19/01/28","19:40",0.0,5.8,81.0,1010.4,288.3,2.2,3.4,290.6,0.00,2.8,5.8,"19:39:12",1
"19/01/28","19:50",0.0,5.5,81.4,1010.2,296.4,2.2,3.6,320.8,0.00,2.6,6.0,"19:42:40",1
"19/01/28","20:00",0.0,5.2,82.5,1010.0,269.9,2.1,3.4,274.1,0.00,2.5,5.9,"19:59:52",1
"19/01/28","20:10",0.0,5.2,82.9,1010.2,278.9,2.7,5.5,301.4,0.00,2.6,5.7,"20:01:36",1
"19/01/28","20:20",0.0,5.2,83.3,1010.4,281.6,2.8,5.0,305.2,0.00,2.6,5.7,"20:16:16",1
"19/01/28","20:30",0.0,5.1,83.1,1010.4,289.5,2.8,4.2,304.4,0.00,2.5,5.6,"20:27:28",1
"19/01/28","20:40",0.0,5.1,83.2,1010.2,294.0,3.1,4.4,320.4,0.00,2.5,5.7,"20:37:20",1
"19/01/28","20:50",0.0,5.1,82.9,1010.7,286.1,3.2,4.5,329.4,0.00,2.5,5.5,"20:44:24",1
"19/01/28","21:00",0.0,5.0,83.0,1010.9,285.0,3.2,4.1,308.1,0.00,2.4,5.5,"20:57:20",1
"19/01/28","21:10",0.0,4.9,83.3,1010.7,298.3,3.5,4.5,316.1,0.00,2.3,5.5,"21:01:28",1
"19/01/28","21:20",0.0,5.6,81.1,1010.2,316.6,4.7,7.9,336.5,0.00,2.7,5.7,"21:18:48",1
"19/01/28","21:30",0.0,5.8,78.7,1010.9,314.4,4.6,6.5,324.8,0.00,2.4,5.6,"21:27:36",1
"19/01/28","21:40",0.0,5.7,78.2,1011.2,318.5,5.6,10.3,333.1,0.00,2.2,5.5,"21:30:32",1
"19/01/28","21:50",0.2,4.6,82.2,1011.4,304.0,4.6,8.1,322.0,0.00,1.9,5.5,"21:41:56",1
"19/01/28","22:00",0.0,4.2,85.4,1011.2,292.1,3.6,5.8,268.5,0.00,2.0,5.5,"21:52:28",1
"19/01/28","22:10",0.0,4.3,86.9,1011.2,295.8,3.7,6.4,331.8,0.00,2.4,5.5,"22:06:48",1
"19/01/28","22:20",0.2,4.3,87.9,1011.4,294.5,3.6,5.4,298.1,0.00,2.5,5.2,"22:17:06",1
"19/01/28","22:30",0.0,4.0,88.9,1011.6,298.6,3.6,6.4,300.5,0.00,2.4,5.3,"22:27:02",1
"19/01/28","22:40",0.0,3.9,89.7,1011.4,291.9,3.7,6.0,339.5,0.00,2.4,5.4,"22:38:26",1
"19/01/28","22:50",0.0,3.7,90.5,1011.2,295.5,4.6,6.2,331.8,0.00,2.3,5.3,"22:48:38",1
"19/01/28","23:00",0.0,3.7,90.9,1011.6,310.7,5.7,10.2,337.4,0.00,2.4,5.2,"22:54:32",1
"19/01/28","23:10",0.0,3.7,91.0,1011.6,314.0,5.2,7.7,323.5,0.00,2.4,5.2,"23:06:12",1
"19/01/28","23:20",0.0,3.7,91.1,1011.9,307.8,4.5,7.8,313.3,0.00,2.4,5.1,"23:15:32",1
"19/01/28","23:30",0.0,3.6,91.0,1011.9,315.9,4.7,6.3,337.0,0.00,2.3,5.0,"23:20:34",1
"19/01/28","23:40",0.2,3.5,90.9,1011.9,319.7,5.9,12.0,334.6,0.00,2.2,4.9,"23:37:10",1
"19/01/28","23:50",0.0,3.9,88.7,1012.1,322.1,6.2,12.5,326.3,0.00,2.2,5.2,"23:44:38",1
"19/01/28","24:00",0.0,4.0,86.0,1012.3,323.1,6.8,12.6,337.6,0.00,1.9,5.2,"23:58:16",1
